RH
59 58 55 53 52 52 54 52 55 60 61 61 61 61 63 68 68 67 65 64 64 66 67 67 68 69 68
59 57 56 56 55 54 52 47 52 57 61 62 60 60 65 71 72 67 64 65 64 64 65 66 68 70 69
63 62 60 58 55 56 55 56 48 57 60 61 62 61 62 72 71 64 62 63 62 63 64 65 67 69 71
65 60 57 59 59 61 59 56 57 51 56 59 63 63 62 67 72 66 65 64 62 64 64 65 66 68 70
65 64 56 60 62 66 63 61 57 62 58 52 57 53 54 61 62 60 62 64 64 64 66 66 67 67 69
67 67 64 63 65 68 70 68 61 57 63 52 56 52 54 55 67 61 60 62 63 63 65 66 66 67 68
69 64 68 66 67 70 72 74 69 60 66 58 54 53 52 49 65 58 57 58 61 62 64 63 66 66 68
58 61 62 65 69 66 73 78 67 61 70 68 56 53 50 51 66 58 58 60 61 61 62 62 66 67 70
65 69 70 64 74 74 72 72 71 62 68 61 53 58 53 51 56 56 62 66 65 63 63 64 67 68 69
60 66 67 67 72 71 75 79 71 72 70 65 58 61 61 56 53 53 58 62 68 67 66 69 68 64 67
68 68 67 65 68 70 72 72 74 72 58 72 75 65 65 63 54 52 55 57 62 62 66 70 70 67 69
73 70 62 62 63 65 67 69 71 71 65 84 89 83 83 78 61 55 55 56 61 59 63 67 66 67 69
75 68 63 62 62 65 64 63 67 66 61 74 83 85 88 86 79 70 68 59 62 65 64 63 66 65 68
68 65 64 68 67 66 67 73 81 77 64 66 70 83 82 78 81 79 68 77 64 64 63 60 59 58 60
72 68 66 66 66 69 73 80 84 79 76 70 63 70 77 82 83 69 72 70 63 62 64 66 60 58 59
74 70 68 69 68 71 73 81 78 80 79 73 76 84 80 68 63 72 67 70 62 63 66 71 67 61 60
77 76 72 74 68 74 76 73 81 79 78 76 82 88 87 80 60 59 71 69 68 68 66 69 73 68 66
Wind_Speed
1 2 3 5 6 6 7 7 6 16 16 17 17 17 18 18 18 17 19 20 22 24 25 26 26 26 26
3 2 3 4 4 5 5 5 4 12 15 16 16 17 17 17 16 16 19 21 23 24 25 26 26 26 27
4 2 1 2 2 3 5 6 3 9 12 13 14 16 17 15 18 16 16 19 21 23 25 25 26 26 27
3 3 1 1 0 3 4 4 3 5 8 9 11 13 16 15 15 17 19 20 20 22 23 24 25 26 27
4 2 2 1 2 2 3 4 1 3 7 6 6 7 9 10 10 16 19 19 21 22 22 22 25 26 27
3 3 3 1 0 2 3 3 3 2 5 5 4 7 7 6 11 16 18 19 20 22 22 22 24 26 26
6 4 4 4 2 1 3 2 2 4 4 3 5 7 8 5 9 16 17 20 19 21 20 23 23 25 25
6 6 4 4 4 2 1 3 3 2 2 2 5 7 8 6 5 18 18 20 20 20 19 23 23 23 23
8 7 8 5 6 3 1 2 2 2 3 5 5 7 6 5 4 19 18 16 20 19 18 22 22 20 14
4 4 3 3 4 2 2 1 1 1 2 5 5 7 5 2 9 8 8 16 18 15 17 20 22 10 10
4 3 3 3 3 3 3 2 1 1 2 3 3 3 3 6 6 7 9 9 9 9 16 17 19 16 10
4 3 3 3 3 2 2 2 2 4 4 2 2 3 3 6 6 8 9 8 7 9 9 12 15 17 17
5 4 3 2 2 1 2 2 1 2 0 0 1 3 1 4 6 8 10 8 5 9 9 10 9 9 10
5 4 3 3 3 2 2 1 0 1 2 2 3 1 3 5 5 7 6 5 9 8 9 9 9 8 9
5 5 4 4 3 3 2 2 1 1 3 3 4 4 4 6 4 5 6 8 7 10 10 9 9 9 9
5 5 5 5 4 3 3 2 2 2 2 3 4 4 4 4 7 6 6 7 9 9 9 9 9 10 9
6 6 5 5 5 4 4 3 3 2 3 3 3 3 5 6 4 7 8 9 8 8 8 9 10 10 10
Wind_Direction
102 45 53 32 28 25 24 34 19 26 21 18 17 15 13 17 17 14 25 21 15 9 4 359 357 353 352
123 88 54 16 19 29 21 25 25 21 17 16 18 17 18 22 18 24 27 17 10 7 1 357 355 352 352
132 134 127 13 9 10 11 14 33 14 10 11 15 17 18 20 19 24 16 10 5 3 357 355 353 352 350
111 120 125 112 47 9 18 5 30 8 3 5 3 11 16 13 11 21 17 8 6 359 357 355 355 350 347
134 138 131 121 43 9 2 355 31 15 351 2 355 2 11 7 8 20 14 10 7 2 357 356 355 350 347
144 146 150 159 228 5 3 13 19 56 346 345 355 358 2 3 355 13 9 7 4 0 356 356 353 349 347
158 161 162 180 165 47 357 341 337 329 333 327 355 349 345 347 353 2 3 2 358 359 356 353 352 349 347
161 168 189 180 203 231 262 292 292 318 12 308 344 336 325 325 346 357 357 355 355 355 354 353 350 349 345
187 196 211 199 178 177 199 321 343 4 53 341 345 325 317 329 351 352 349 350 348 349 352 349 349 348 340
153 141 123 121 131 167 170 170 33 315 86 332 336 348 325 330 340 347 343 340 342 347 352 348 351 349 344
166 158 157 139 140 156 164 168 172 259 340 335 306 337 317 316 324 335 339 335 339 340 346 345 347 353 345
171 174 183 170 150 153 185 195 216 252 300 260 262 328 334 311 327 333 334 332 344 342 343 338 341 342 343
184 184 181 164 169 178 158 133 233 253 317 169 271 319 285 289 301 319 330 333 334 341 340 338 335 336 336
183 165 160 176 171 170 179 140 314 329 346 7 2 328 306 289 298 303 324 323 325 334 334 328 331 337 334
172 173 179 180 182 171 175 151 173 303 320 330 344 332 293 271 293 307 320 321 329 329 330 328 328 332 332
189 187 189 190 187 179 180 190 233 247 288 313 327 343 350 311 267 302 320 323 324 324 323 322 324 326 329
197 197 194 192 200 194 194 210 226 250 288 305 311 328 326 318 293 310 334 318 321 322 324 321 318 317 319